Location: Lamonts Corners
(41.2570°N, 80.4512°W)
Time: 05:36:28
(UTC+00:00)

Daily predictions for brighter satellites

Satellite Brightness Start Highest point End
(mag) Time Altitude Azimuth Time Altitude Azimuth Time Altitude Azimuth
ERS-2 2.5 00:00:21 10° N 00:03:57 62° WNW 00:07:31 10° SSW
BREEZE-M DEB (TANK) 4.1 00:04:03 10° WNW 00:06:15 23° SW 00:07:22 16° S
Cosmos 44 3.3 00:08:38 10° SSW 00:13:13 57° ESE 00:14:12 47° ENE
PSLV R/B 4.3 00:09:23 10° N 00:13:35 66° WNW 00:17:43 10° SSW
Nadezhda 4 Rocket 4.3 00:08:36 10° SSW 00:14:50 67° W 00:21:02 10° N
Cosmos 1328 4.1 00:15:03 10° S 00:18:15 50° SE 00:18:15 50° SE
Cosmos 1626 Rocket 3.6 00:14:43 10° SSW 00:19:04 76° W 00:22:50 14° N
CZ-4 R/B 2.0 00:15:08 10° S 00:19:12 58° W 00:23:13 10° NNW
EXPRESS MD2 3.6 00:12:50 10° WNW 00:19:46 85° SW 00:20:41 55° SE
Lacrosse 5 1.7 00:15:58 10° NW 00:21:01 70° NE 00:22:02 54° ESE
ARGOS 3.0 00:15:54 10° SSE 00:21:13 72° ENE 00:26:35 10° N
NOSS 2-1 (E) 4.2 00:19:36 10° SSW 00:21:38 32° S 00:21:38 32° S
CZ-4B R/B 4.4 00:23:37 10° NNW 00:25:32 14° WNW 00:27:25 10° WSW
Cosmos 1689 Rocket 3.8 00:27:27 30° WNW 00:27:36 30° WNW 00:30:09 10° SW
Hubble Space Telescope 3.1 00:27:39 10° SSW 00:29:47 14° S 00:30:03 14° S
CSL-04 Debris 4.0 00:26:45 10° SSE 00:32:09 90° ENE 00:37:34 10° NNW
CZ-2C R/B 2.6 00:31:47 44° NE 00:33:29 68° ESE 00:39:03 10° S
Cosmos 990 Rocket 3.9 00:29:54 10° SSW 00:35:07 85° WNW 00:36:47 45° NNE
Cosmos 1844 4.5 00:35:43 10° SW 00:41:10 49° WNW 00:44:56 20° N
Okean-O 4.0 00:37:20 10° SSW 00:41:29 39° W 00:45:40 10° NNW
Cosmos 1833 Rocket 4.3 00:39:39 10° N 00:41:36 20° N 00:41:36 20° N
Cosmos 2082 Rocket 4.4 00:42:58 10° N 00:43:24 12° N 00:43:24 12° N
Cosmos 2026 Rocket 4.1 00:45:45 10° SSW 00:51:49 74° W 00:58:01 10° N
Meteor 2-19 Rocket 4.3 00:49:10 10° S 00:55:19 88° E 00:57:05 50° N
NOSS 3-1 (C) 4.0 00:48:11 10° NNW 00:55:46 67° NE 00:57:05 59° E
H-2A R/B 3.4 00:52:57 10° SSW 00:57:28 36° W 01:02:08 10° NNW
Meteor 1-11 4.2 00:55:24 10° S 01:00:48 78° SW 01:00:48 78° SW
Cosmos 1844 Rocket 4.4 00:57:44 10° WSW 01:02:34 28° NW 01:06:14 15° N
Cosmos 1898 Rocket 4.1 00:59:28 10° SW 01:04:39 55° WNW 01:05:07 53° NW
Cosmos 1680 Rocket 4.1 01:02:49 10° NNW 01:07:54 53° WSW 01:08:26 50° SW
Cosmos 2278 Rocket 3.8 01:06:07 10° SSW 01:08:10 23° S 01:08:10 23° S
USA 229 DEB 4.1 01:05:31 10° NNW 01:11:45 57° NNE 01:11:45 57° NNE
USA 229 4.1 01:05:38 10° NNW 01:11:48 56° NNE 01:11:48 56° NNE
USA 267 3.1 01:13:39 85° NNW 01:13:44 85° NW 01:20:17 10° SW
SJ 16-02 4.2 01:20:12 10° W 01:22:18 13° WNW 01:24:09 11° NNW
Cosmos 2344 4.3 01:17:31 10° NW 01:27:15 80° NE 01:29:57 61° SE
NOSS 3-1 (A) 4.3 01:20:53 10° NNW 01:26:54 56° N 01:26:54 56° N
USA 234 4.5 01:49:42 33° NNW 01:49:42 33° NNW 01:53:12 10° NW
SJ 16-02 3.9 09:54:02 14° SSE 09:54:02 14° SSE 09:54:41 10° SSE
Lacrosse 5 rocket 4.0 09:58:46 13° NE 09:58:46 13° NE 09:59:48 10° NE
Atlas Centaur 2 4.2 09:56:30 24° SSW 09:59:04 29° SSE 10:06:02 10° ESE
Cosmos 2278 Rocket 3.7 10:02:15 18° N 10:05:41 33° ENE 10:10:46 10° ESE
Cosmos 2237 Rocket 3.6 10:09:25 10° S 10:14:34 38° ESE 10:19:46 10° NE
Cosmos 468 Rocket 4.0 10:15:13 75° SSE 10:15:37 82° ESE 10:20:56 10° NNE
Cosmos 2333 Rocket 2.8 10:20:17 42° N 10:20:17 42° N 10:24:15 10° NNE
BREEZE-M DEB (TANK) 4.1 10:15:12 37° NW 10:18:44 59° NNE 10:22:50 10° E
Cosmos 2219 Rocket 2.5 10:20:31 49° NNW 10:20:31 49° NNW 10:24:48 10° NNE
Cosmos 1464 Rocket 4.2 10:17:13 10° S 10:23:16 68° E 10:29:22 10° NNE
Cosmos 1937 Rocket 4.4 10:21:21 19° N 10:24:57 48° ENE 10:30:00 10° SE
GEOS 3 Rocket 4.2 10:26:49 10° SE 10:32:03 57° NE 10:34:55 27° NNW
Cosmos 1455 Rocket 3.0 10:29:12 10° S 10:33:34 84° E 10:37:55 10° N
IRIDIUM 104 4.2 10:32:49 10° SSW 10:37:58 63° W 10:43:10 10° N
SKYMED 2 3.5 10:34:01 10° SSE 10:38:21 87° ENE 10:39:48 42° N
COSMOS 2428 2.8 10:38:26 52° WNW 10:38:41 52° WNW 10:44:15 10° NNE
ERS-2 2.4 10:37:18 10° SSE 10:40:53 64° ENE 10:41:48 45° NNE
ATLAS CENTAUR R/B 4.3 10:38:48 10° SSE 10:40:57 15° ESE 10:43:07 10° ENE
Meteor PRIRODA 3.8 10:40:03 10° NNE 10:43:41 69° ESE 10:47:16 10° S
Cosmos 1953 2.7 10:39:56 10° S 10:43:51 62° E 10:47:47 10° NNE
Cosmos 44 Rocket 3.9 10:43:15 24° NNW 10:46:18 59° NE 10:51:26 10° SE
Cosmos 1689 Rocket 3.4 10:43:50 10° SE 10:46:33 37° ENE 10:47:20 30° NE
IRIDIUM 114 4.4 10:42:03 10° SSW 10:47:07 52° W 10:52:14 10° N
Cosmos 1980 3.8 10:41:41 10° SSW 10:47:19 77° ESE 10:52:59 10° NNE
Cosmos 1908 4.4 10:44:32 10° SSE 10:48:07 42° E 10:51:44 10° NNE
Cosmos 2360 Rocket 4.2 10:52:10 12° NNW 10:52:10 12° NNW 10:53:00 10° N
deb Chang Zheng 4 3.3 10:46:31 10° N 10:50:46 75° WNW 10:54:58 10° SSW
CZ-4B R/B 3.6 10:49:31 10° S 10:50:21 16° S 10:50:21 16° S
MOS 1 Rocket 3.3 10:49:57 10° SSE 10:55:02 90° ESE 10:59:51 10° NNW
Cosmos 540 Rocket 3.4 10:50:16 10° SSW 10:55:23 89° E 11:00:32 10° NNE
ADEOS 4.0 10:54:57 10° N 10:59:44 38° WNW 11:00:58 33° W
BREEZE-M DEB (TANK) 2.7 10:58:46 34° SSW 10:59:57 66° SE 11:06:43 10° ENE
Cosmos 2034 Rocket 4.0 10:54:24 10° S 11:00:47 87° W 11:07:12 10° N
Cosmos 990 Rocket 4.1 10:59:51 33° NW 11:01:38 47° WSW 11:06:32 10° S
CZ-2C R/B 3.0 10:59:52 16° SSW 11:02:07 25° SSE 11:05:24 10° ESE
Cosmos 1461 3.4 11:01:19 39° W 11:02:23 46° NW 11:07:00 10° NNE
PSLV R/B 3.9 10:58:27 10° SSE 11:02:33 87° ENE 11:06:43 10° NNW
Meteor 2-10 4.5 11:00:23 10° SW 11:05:42 42° WNW 11:10:56 10° N
OAO 2 Rocket 4.1 11:04:20 24° SW 11:06:44 40° S 11:11:19 10° ESE
Cosmos 1602 Rocket 4.4 11:03:26 10° N 11:07:48 52° E 11:12:10 10° SSE
SL-8 R/B 3.7 11:06:33 31° NW 11:08:49 78° NNE 11:13:39 10° ESE
Nadezhda 4 Rocket 3.9 11:03:59 10° N 11:10:08 83° W 11:16:14 10° S
Cosmos 1892 Rocket 4.2 11:12:41 31° W 11:12:48 31° W 11:16:40 10° SSW
NOSS 3-2 (A) 4.3 11:10:51 10° S 11:16:07 48° ESE 11:22:02 10° NE
Meteor 1-16 Rocket 4.3 11:11:21 10° SSW 11:17:13 81° W 11:23:11 10° N
USA 306 4.4 11:13:46 10° SSW 11:17:40 36° SE 11:21:35 10° ENE
Cosmos 1340 2.8 11:16:29 10° N 11:20:15 76° E 11:24:00 10° SSE
Cosmos 921 Rocket 4.0 11:21:02 24° NW 11:21:02 24° NW 11:24:01 10° N
Meteor 2-13 Rocket 4.4 11:17:22 10° NNW 11:23:27 64° W 11:29:30 10° S
Cosmos 1763 Rocket 4.3 11:21:23 21° W 11:23:32 28° WNW 11:28:01 10° N
Cosmos 1703 3.1 11:21:30 10° N 11:25:24 84° W 11:29:17 10° S
SAR-Lupe-4 3.9 11:22:36 10° S 11:26:02 43° W 11:28:45 15° NNW
COSMO-SKYMED 1 3.5 11:22:54 10° SSW 11:26:36 27° W 11:28:27 20° WNW
CZ-4B R/B 3.4 11:24:30 10° N 11:27:39 28° WNW 11:30:50 10° SW
Cosmos 841 Rocket 3.6 11:24:38 10° SW 11:29:35 48° WNW 11:34:34 10° N
Cosmos 1346 Rocket 4.2 11:28:27 10° N 11:32:13 40° ENE 11:35:58 10° SSE
Cosmos 1898 Rocket 4.3 11:29:26 17° NW 11:32:23 29° W 11:36:47 10° SSW
Gbstr 26 Del rocket 4.5 11:28:59 10° SW 11:36:33 86° NW 11:44:46 10° NE
H-2A R/B 3.4 11:33:44 10° N 11:37:00 30° WNW 11:40:17 10° SW
Lacrosse 5 rocket 1.4 11:34:24 15° NW 11:37:33 63° NE 11:41:13 10° SE
Lacrosse 4 Rocket 1.5 11:35:34 10° SSW 11:39:45 85° ESE 11:44:06 10° NNE
Meteor 1-11 4.4 11:36:23 10° N 11:41:59 75° E 11:47:33 10° SSE
BREEZE M DEB (TANK) 1.5 11:41:00 11° SW 11:43:02 80° SE 11:46:46 10° ENE
Cosmos 2098 Rocket 4.1 11:37:12 10° N 11:43:24 65° E 11:48:17 10° SSE
Cosmos 1570 Rocket 4.3 11:38:54 10° SW 11:43:52 44° WNW 11:48:53 10° N
Cosmos 2369 Rocket 4.3 11:39:52 10° N 11:44:05 21° NE 11:48:18 10° E
Cosmos 2298 Rocket 4.4 11:39:22 10° NNW 11:44:43 71° ENE 11:50:01 10° SSE
SL-16 R/B 2.4 11:40:21 10° SSW 11:45:58 76° ESE 11:51:39 10° NNE
FALCON 9 DEB 4.1 11:44:29 17° W 11:46:32 30° NNW 11:49:37 10° NE
Cosmos 2026 Rocket 4.1 11:40:48 10° N 11:47:11 90° E 11:53:34 10° S
Atlas Centaur 2 4.1 11:40:35 10° WSW 11:48:00 39° S 11:55:43 10° ESE
Cosmos 2278 Rocket 2.8 11:44:36 10° NW 11:49:45 36° WSW 11:54:51 10° S
CZ-4B R/B 3.6 11:44:39 10° NNE 11:50:20 71° ESE 11:55:53 10° S
Cosmos 1400 Rocket 3.3 11:48:07 10° SW 11:51:55 38° WNW 11:55:48 10° N
Cosmos 1328 3.9 11:49:44 10° NNW 11:53:34 52° W 11:57:21 10° S
